{"data":{"norad_id":59525,"epoch":"2026-09-21T08:43:57.389952Z","epoch_age_seconds":90218,"freshness":"FRESH","line1":"1 59525U 24073Q   26264.36385868  .00001617  00000+0  68267-4 0  9996","line2":"2 59525  43.0039 292.7658 0001714 269.3592  90.7063 15.27590797136103","mean_motion":15.27590797,"eccentricity":0.0001714,"inclination_deg":43.0039,"raan_deg":292.7658,"arg_perigee_deg":269.3592,"mean_anomaly_deg":90.7063,"bstar":6.8267e-5,"rev_number":13610,"period_min":94.266082436997,"perigee_km":481.84076437236,"apogee_km":484.19276788339,"semimajor_km":6861.1537661279,"source":"CELESTRAK","updated_at":"2026-09-22T09:00:48.965419Z"}}